STARLINK-11562, 62918

Orbit data source: Space-Track

STARLINK-11562, 62918 is a payload satellite owned by SpaceX/Seattle (US) in LEO that was launched on Sat, 08 Feb 2025 UTC via an FALCON 9 launch vehicle from the Air Force Eastern Test Range (AFETR). Payload-class satellites include a variety of spacecraft equipped with specific instruments for various scientific and technological missions. These include communications satellites like Starlink; space stations such as the ISS; scientific satellites like the Hubble; Earth observation satellites from companies like Planet Labs, Umbra, and HawkEye 360; GPS; miniature CubeSats for education and research; and military/defense satellites.

Loading next visibility...
Identifier
62918, 2025-027M
Orbit
LEO
Last TLE update
8 hours ago
Origin
Manufacturer
SpaceX/Seattle
Mission
Operational Commercial Communications
Bus & Motor
STARLINK V2M, Unknown motor
Mass
730 kg wet, ~700 kg dry
Launch date (UTC)
2025-02-08 (5 months ago)
Launch vehicle
FALCON 9
Launch site
Air Force Eastern Test Range (AFETR)
Object type
Payload
Rocket body
Debris
Shape & HBR
Box + 2 Pan, 29 m
Radar Cross Section
36.964 m², Large (>1 m²)

Expand to show TLE details & history

TLE from 8 hours ago
0 STARLINK-11562
1 62918U 25027M   25183.93138031  .00255628  00000-0  19277-2 0  9995
2 62918  43.0005  52.9410 0001852 244.0911 115.9765 15.70930285 23917
Epoch: 2025-07-02T22:21Z
TLE epoch observation values (Epoch: 2025-07-02T22:21:11.258Z)
Latitude
-0.00009°
Longitude
156.43859°
Altitude
356.555 km
Speed
7.697 km/s
True Right ascension
03h 31m 45s
True Declination
0° 00' 00"
Sunlit
Object was in daylight at epoch
Visualization orbit readout
Latitude
34.35243°
Longitude
-72.39977°
Altitude
357.728 km
Speed
7.699 km/s
Apparent Right ascension
09h 30m 57s
Apparent Declination
-2° 14' 31"
Sunlit
Object is in daylight
Visualization observer readout
Local Sidereal Time
18:16:15
Azimuth
297.666° NW
Elevation
-32.086°
Doppler factor
1
Orbital elements
Apogee altitude
359.466 km
Perigee altitude
356.971 km
Semi-major axis
6,736.356 km
Eccentricity
0.00019
Inclination
43.0005°
RAAN
52.941°
Arg. of periapsis
244.0911°
True anomaly
Unknown
Mean anomaly
115.9765°
Eccentric anomaly
Unknown
Mean motion
3.9256 °/min
Orbital period
91.71 mins
BSTAR
0.0019277
Loading maneuver chart data...
Loading SW <> Apogee altitude chart data...
Loading historical data...
Loading historical data...
Loading historical data...
Loading historical data...
Loading historical data...
Loading historical data...
Loading historical data...

STARLINK-11562 Visibility forecast

Observer location: undefined°, undefined°

Span
Click to sort rows by Start time (UTC) header in descending order
Start Az.
Max El. time (UTC)
Max El. Az.
Max El.
End time (UTC)
End Az.
4 mins2025-07-03 18:23:34.096Z206.848° SW2025-07-03 18:25:34.096Z159.385° S23.957°2025-07-03 18:27:34.096Z99.563° ESE
4 mins2025-07-03 20:00:34.096Z272.402° WNW2025-07-03 20:01:34.096Z320.243° NNW41.914°2025-07-03 20:04:34.096Z69.189° E
4 mins2025-07-03 21:36:34.096Z302.194° NW2025-07-03 21:37:34.096Z333.95° NNW32.566°2025-07-03 21:40:34.096Z75.972° E
4 mins2025-07-03 23:12:34.096Z284.461° WNW2025-07-03 23:14:34.096Z135.227° SSE42.042°2025-07-03 23:16:34.096Z114.542° SE
|